Salisbury, MD

7:47 PM EDT on August 28, 2016 (GMT -0400)
Salisbury-Ocean City Wicomico Regional

Weather History for KSBY - July, 2013

Change the Weather History Date:

Saturday, July 20, 2013

  Actual Average Record
Temperature  
Mean Temperature 89 °F 77 °F  
Max Temperature 94 °F 87 °F 104 °F (1929)
Min Temperature 83 °F 67 °F 52 °F (2001)
Degree Days  
Heating Degree Days 0 0  
Month to date heating degree days 0 0  
Since 1 June heating degree days 0 19  
Since 1 July heating degree days 0 0  
Cooling Degree Days 24 12  
Month to date cooling degree days 358 235  
Year to date cooling degree days 882 546  
Since 1 June cooling degree days 691 462  
Growing Degree Days 38 (Base 50)    
Moisture  
Dew Point 75 °F    
Average Humidity 63    
Maximum Humidity 74    
Minimum Humidity 52    
Precipitation  
Precipitation 0.00 in 0.14 in 2.20 in (1915)
Month to date precipitation 3.61 2.61  
Year to date precipitation 32.18 24.87  
Snow  
Snow 0.00 in 0.00 in 0.00 in (2002)
Month to date snowfall 0.0 0.0  
Since 1 July snowfall 0.0 0.0  
Snow Depth 0.00 in    
Sea Level Pressure  
Sea Level Pressure 29.89 in    
Wind  
Wind Speed 11 mph (SW)    
Max Wind Speed 20 mph    
Max Gust Speed 25 mph    
Visibility 10 miles    
Events      
T = Trace of Precipitation, MM = Missing Value Source: NWS Daily Summary

Daily Weather History Graph

Daily Weather History Graph

Search for Another Location

Airport or City:

Trip Planner

Search our weather history database for the weather conditions in past years. The results will help you decide how hot, cold, wet, or windy it might be!

Date:

Astronomy

Jul. 20, 2013 Rise Set
Actual Time 5:54 AM EDT 8:21 PM EDT
Civil Twilight 5:24 AM EDT 8:52 PM EDT
Nautical Twilight 4:46 AM EDT 9:29 PM EDT
Astronomical Twilight 4:04 AM EDT 10:11 PM EDT
Moon 6:23 PM EDT (7/20) 3:31 AM EDT (7/20)
Length of Visible Light 15h 28m
Length of Day
14h 27m
Waxing Gibbous, 93% of the Moon is Illuminated
Jul 20
Waxing Gibbous
Jul 22
Full
Jul 29
Last Quarter
Aug 6
New
Aug 14
First Quarter

Hourly Weather History & Observations

Time (EDT) Temp. Heat Index Dew Point Humidity Pressure Visibility Wind Dir Wind Speed Gust Speed Precip Events Conditions
12:54 AM 84.9 °F 94.1 °F 75.9 °F 74% 29.91 in 10.0 mi SW 9.2 mph - N/A   Clear
1:54 AM 84.9 °F 93.3 °F 75.0 °F 72% 29.92 in 10.0 mi SW 10.4 mph - N/A   Clear
2:54 AM 84.9 °F 93.3 °F 75.0 °F 72% 29.91 in 10.0 mi SW 9.2 mph - N/A   Clear
3:54 AM 84.0 °F 91.9 °F 75.0 °F 74% 29.90 in 10.0 mi SW 8.1 mph - N/A   Clear
4:54 AM 82.9 °F 89.4 °F 73.9 °F 74% 29.89 in 10.0 mi SW 8.1 mph - N/A   Clear
5:54 AM 82.9 °F 89.4 °F 73.9 °F 74% 29.91 in 10.0 mi SW 9.2 mph - N/A   Clear
6:54 AM 82.9 °F 89.4 °F 73.9 °F 74% 29.91 in 10.0 mi SW 9.2 mph - N/A   Clear
7:54 AM 84.9 °F 93.3 °F 75.0 °F 72% 29.92 in 10.0 mi WSW 11.5 mph 18.4 mph N/A   Clear
8:54 AM 86.0 °F 95.1 °F 75.0 °F 70% 29.91 in 10.0 mi WSW 18.4 mph 25.3 mph N/A   Partly Cloudy
9:10 AM 86.0 °F 95.1 °F 75.2 °F 70% 29.91 in 10.0 mi WSW 11.5 mph - N/A   Mostly Cloudy
9:54 AM 87.1 °F 96.3 °F 75.0 °F 67% 29.92 in 10.0 mi WSW 12.7 mph - N/A   Mostly Cloudy
10:54 AM 89.1 °F 99.1 °F 75.0 °F 63% 29.92 in 10.0 mi WSW 16.1 mph 23.0 mph N/A   Mostly Cloudy
11:54 AM 88.0 °F 97.5 °F 75.0 °F 65% 29.91 in 10.0 mi WSW 10.4 mph - N/A   Mostly Cloudy
12:20 PM 89.6 °F 99.8 °F 75.2 °F 62% 29.90 in 10.0 mi WSW 13.8 mph 24.2 mph N/A   Scattered Clouds
12:29 PM 89.6 °F 99.8 °F 75.2 °F 62% 29.90 in 10.0 mi WSW 13.8 mph - N/A   Mostly Cloudy
12:54 PM 90.0 °F 100.2 °F 75.0 °F 61% 29.90 in 10.0 mi WSW 13.8 mph - N/A   Scattered Clouds
1:54 PM 93.0 °F 104.6 °F 75.0 °F 56% 29.88 in 10.0 mi WSW 13.8 mph 19.6 mph N/A   Partly Cloudy
2:54 PM 91.9 °F 103.9 °F 75.9 °F 59% 29.87 in 10.0 mi SW 11.5 mph - N/A   Clear
3:54 PM 93.0 °F 104.6 °F 75.0 °F 56% 29.85 in 10.0 mi SW 11.5 mph - N/A   Clear
4:54 PM 93.0 °F 103.2 °F 73.9 °F 54% 29.84 in 10.0 mi SW 12.7 mph 19.6 mph N/A   Clear
5:54 PM 91.9 °F 103.2 °F 75.0 °F 58% 29.83 in 10.0 mi SW 10.4 mph 23.0 mph N/A   Clear
6:54 PM 90.0 °F 101.3 °F 75.9 °F 63% 29.84 in 10.0 mi SW 9.2 mph - N/A   Clear
7:54 PM 88.0 °F 100.2 °F 77.0 °F 70% 29.86 in 10.0 mi SSW 10.4 mph - N/A   Clear
8:54 PM 87.1 °F 98.8 °F 77.0 °F 72% 29.87 in 10.0 mi SW 6.9 mph - N/A   Clear
9:54 PM 86.0 °F 96.0 °F 75.9 °F 72% 29.88 in 10.0 mi SW 8.1 mph - N/A   Clear
10:54 PM 84.9 °F 94.1 °F 75.9 °F 74% 29.89 in 10.0 mi SW 9.2 mph - N/A   Clear
11:54 PM 84.0 °F 92.6 °F 75.9 °F 76% 29.90 in 10.0 mi SW 6.9 mph - N/A   Clear